RH
8 9 9 10 11 11 13 15 17 20 20 20 20 19 23 29 29 28 31 34 39 44 48 47 47 47 46 38 35 40 37 26 20 17 13 11 14 15 15 16 17 18 19 19 20 20 21 22 23 24 26 28 29 28 27 29 31 30 29 29 30 32 32 29 34 40 40 38 39 44 45 44 40 32 36 51 55 48 45 46 53 57 47 42 48 51
8 9 9 10 13 13 13 15 16 19 20 19 22 24 28 31 30 28 32 37 40 47 51 49 48 49 48 43 35 37 39 32 24 21 17 12 10 13 14 14 15 17 19 20 21 22 22 22 23 24 24 26 27 26 25 24 25 27 29 32 34 35 33 33 40 43 39 38 39 37 34 33 31 23 19 23 24 22 21 18 23 26 17 13 18 19
9 9 9 9 12 13 13 14 16 20 20 19 23 29 35 35 33 34 36 40 43 49 52 50 52 52 48 46 37 33 37 38 32 25 22 16 11 12 13 13 14 15 18 21 22 23 23 22 21 22 23 24 26 27 25 21 21 26 30 33 34 35 35 37 41 39 34 31 28 23 20 20 20 14 8 8 6 5 5 3 4 6 4 4 5 4
9 9 9 9 10 11 12 13 17 20 19 18 22 30 38 37 35 39 39 40 43 48 51 51 54 55 50 48 41 33 35 40 38 31 27 20 11 11 13 13 13 13 15 19 20 20 21 20 18 17 20 23 26 26 21 18 21 26 30 31 32 34 35 36 35 30 24 20 16 14 12 10 10 6 3 3 3 3 4 5 5 5 5 5 4 4
9 8 8 9 10 10 11 13 17 20 18 17 20 27 35 35 35 37 36 38 43 47 49 50 53 53 48 45 39 35 36 38 39 35 32 26 14 9 12 13 12 12 13 14 15 14 15 15 15 15 17 20 23 21 16 18 24 28 31 32 29 30 32 32 27 20 16 13 10 9 7 5 4 4 6 8 10 12 13 13 13 12 10 8 7 6
8 9 8 8 9 10 11 12 16 20 18 16 19 22 29 33 34 37 37 39 45 48 47 48 50 46 39 36 34 33 35 36 37 36 34 33 22 11 10 12 10 9 9 10 11 11 12 12 12 14 15 17 18 16 16 23 29 30 31 29 24 24 27 24 18 14 12 10 7 6 6 8 10 12 15 18 20 21 21 20 18 17 15 13 10 8
8 9 9 8 10 10 10 12 15 18 19 18 18 20 26 32 35 38 37 38 43 43 40 41 44 41 35 30 28 29 32 34 35 34 32 34 31 22 14 12 11 8 6 7 8 10 10 10 11 12 12 14 14 15 21 27 27 25 23 19 17 19 21 17 14 14 11 9 10 11 13 16 19 21 22 25 26 25 25 25 24 22 21 20 18 16
9 9 10 9 9 10 10 12 15 18 19 19 19 20 25 32 36 33 28 29 32 33 37 38 39 43 40 30 26 28 31 32 32 31 30 30 32 31 24 17 14 9 5 6 8 9 9 10 10 10 10 12 14 19 25 24 19 17 15 13 14 15 15 15 15 15 13 13 14 16 20 22 24 26 27 28 28 26 25 28 28 28 28 28 26 25
10 9 10 10 10 10 10 11 13 17 19 20 20 20 23 30 33 27 21 23 24 30 42 41 38 47 44 30 26 29 29 29 28 27 27 27 28 31 30 25 20 13 7 7 10 11 11 11 11 12 13 14 19 22 22 19 15 13 12 12 13 12 13 15 17 17 17 17 17 18 20 23 26 30 30 31 30 28 26 26 27 30 32 33 32 29
12 10 9 9 11 11 10 10 12 16 18 19 19 19 19 24 26 22 20 22 26 35 43 37 37 46 42 30 24 24 24 22 20 19 21 24 26 28 30 30 26 20 14 12 12 12 13 13 12 14 16 18 20 21 18 15 14 12 12 12 12 12 14 16 17 19 21 20 19 19 19 21 24 28 30 32 33 31 30 29 29 31 34 35 35 34
15 13 10 9 10 11 11 10 12 16 17 18 19 18 18 19 19 20 22 26 35 41 37 30 32 38 35 26 20 19 18 16 14 15 16 19 23 25 27 30 30 28 23 19 16 14 14 15 14 15 18 20 19 16 14 13 13 12 13 13 13 14 15 18 20 21 22 22 21 21 21 21 22 25 29 32 34 34 33 32 33 33 34 35 37 38
17 15 13 10 9 11 13 12 13 16 17 17 18 18 20 22 22 27 33 36 40 39 30 22 26 38 37 24 17 18 18 16 13 13 15 16 18 21 24 27 30 31 29 26 22 19 16 15 16 17 17 19 17 13 12 12 13 14 15 15 16 17 18 20 22 24 25 25 25 25 25 24 23 24 26 29 32 34 34 33 33 34 35 35 36 38
19 15 14 13 10 10 13 15 15 16 16 16 19 18 21 27 29 33 39 39 38 34 26 21 27 43 43 22 15 18 18 16 13 12 15 15 16 19 23 25 28 31 32 30 29 27 24 19 17 17 17 17 15 12 12 13 14 16 17 18 19 20 21 23 24 26 28 28 29 31 31 29 28 26 23 23 26 28 30 31 32 34 35 35 35 36
20 16 13 14 14 11 12 15 16 17 16 16 19 19 21 26 28 33 37 36 36 31 25 23 30 44 41 21 15 17 16 16 13 13 15 15 17 19 21 26 28 30 32 32 32 31 31 29 22 18 18 18 16 14 13 13 15 17 18 19 21 22 23 24 26 28 29 30 32 33 34 35 35 33 29 27 27 29 30 31 32 33 33 33 33 34
20 18 14 12 15 14 12 14 15 17 16 15 18 18 20 22 23 28 31 30 30 28 28 32 36 41 36 21 15 15 15 14 11 12 14 14 16 17 19 23 26 28 31 33 34 33 33 35 32 27 25 22 20 18 16 14 14 16 17 19 21 22 23 24 26 27 29 31 32 33 34 36 38 38 37 36 35 35 35 36 37 36 34 33 32 34
19 19 14 10 12 13 12 12 13 15 16 16 17 18 20 20 19 21 24 23 23 26 35 41 36 30 26 18 15 15 14 13 11 12 13 13 15 16 17 19 21 25 28 30 34 34 33 35 36 37 36 30 24 20 20 19 16 15 16 17 17 19 21 22 24 26 28 29 30 32 33 34 36 38 39 39 38 38 38 39 38 37 34 31 32 35
19 19 15 11 11 12 12 13 12 14 16 17 19 20 20 18 19 20 21 23 22 23 32 38 31 25 21 16 14 14 13 13 12 11 12 14 14 14 15 16 19 22 25 28 30 32 33 34 35 38 42 41 33 26 24 24 22 20 19 20 20 19 18 19 20 22 25 27 29 30 31 32 33 35 36 37 38 38 38 38 38 37 35 32 33 37
17 17 14 13 13 11 10 12 13 13 14 16 18 19 18 19 19 19 22 28 25 22 28 33 29 25 23 19 16 13 13 13 12 12 12 13 13 13 13 14 15 18 22 26 27 29 33 34 35 36 40 44 43 38 35 35 34 31 25 23 25 26 25 23 21 20 20 23 25 27 29 30 31 32 33 34 36 37 36 36 37 36 36 35 35 36
15 16 14 13 13 12 10 11 13 13 13 14 16 16 17 20 20 18 22 28 26 24 27 29 28 24 20 19 17 13 13 12 12 12 12 12 12 11 12 13 14 15 19 23 25 27 29 28 31 35 38 42 45 46 45 45 45 42 34 28 30 37 40 38 34 29 24 23 23 24 26 27 29 31 32 33 34 35 34 34 35 35 35 35 35 36
15 16 16 15 14 13 12 11 12 13 13 13 14 15 17 18 20 19 21 22 22 24 25 26 29 26 18 16 15 14 13 12 12 12 11 12 12 11 13 14 14 15 17 20 23 23 21 20 25 32 36 40 43 45 47 48 48 48 44 39 39 44 47 47 46 43 38 34 29 24 23 25 27 29 31 32 32 35 36 35 34 35 37 36 35 35
18 17 18 17 15 15 14 13 11 11 13 14 15 17 18 17 18 19 20 19 19 24 26 24 26 24 18 14 14 14 13 12 12 12 11 12 12 13 15 16 16 16 16 19 22 19 16 15 20 28 34 37 41 45 46 48 49 49 49 47 48 49 49 50 51 51 51 48 42 33 26 24 25 27 30 32 33 35 37 36 33 34 38 38 37 36
21 19 19 19 16 15 14 13 11 10 10 12 15 17 17 17 18 18 22 22 18 21 26 23 21 20 16 14 14 13 13 13 12 12 12 12 13 14 16 16 17 17 17 19 20 17 15 14 17 25 31 33 38 42 43 46 48 49 51 50 51 51 51 52 54 54 56 56 56 50 40 31 26 25 29 32 34 35 37 38 36 40 47 43 35 36
22 21 20 19 18 17 16 14 12 11 10 9 12 14 15 16 17 17 21 23 19 20 22 21 20 19 15 14 13 13 12 12 11 11 12 13 14 15 15 17 18 18 18 19 17 15 15 14 17 25 30 32 35 37 39 43 45 47 48 48 50 50 52 53 54 55 57 58 60 60 55 48 35 26 28 34 37 36 37 39 37 44 55 50 40 43
22 21 20 20 20 18 17 15 13 13 12 9 9 11 13 15 16 16 18 19 20 22 21 21 22 19 15 14 13 12 13 12 12 12 12 14 15 14 14 15 17 18 19 17 16 15 15 14 16 22 27 31 34 35 37 40 42 44 45 46 47 48 50 52 53 55 55 56 58 60 62 60 44 28 29 34 37 37 39 40 39 43 52 53 53 55
23 21 21 21 22 21 19 17 15 15 14 13 11 9 10 13 14 16 16 15 18 21 19 20 21 17 15 14 12 12 13 12 12 11 11 13 14 14 14 14 15 18 17 15 14 15 14 13 13 15 18 24 30 35 37 39 40 42 43 44 46 46 48 50 51 52 51 54 58 60 65 65 49 35 33 33 32 35 39 42 40 42 50 57 61 59
29 26 24 21 22 24 23 20 17 16 15 15 14 12 10 11 13 15 16 17 19 20 18 17 18 16 15 14 12 13 13 12 12 11 11 12 13 13 13 14 17 17 15 14 14 14 14 14 12 12 12 15 21 29 35 36 36 38 40 41 42 43 44 46 47 47 48 53 57 60 67 69 61 56 53 46 39 37 40 43 43 42 48 54 56 51
34 31 29 25 22 21 21 20 18 16 15 14 15 15 13 12 12 12 14 18 19 19 18 16 15 15 14 12 11 11 12 12 12 11 11 12 12 12 11 14 18 17 14 14 15 14 14 14 13 13 11 10 12 18 24 27 27 29 31 34 38 40 41 42 44 44 45 48 50 55 63 64 61 65 69 65 60 54 52 51 45 41 44 48 48 44
32 31 30 27 24 20 18 19 19 16 14 13 13 14 14 14 13 12 14 15 16 18 19 16 13 14 13 11 10 10 12 12 11 11 13 13 13 12 11 13 17 17 14 14 15 15 14 14 14 14 12 10 10 12 15 16 17 20 23 28 33 36 36 37 37 38 38 39 41 45 47 45 46 57 70 76 73 69 70 65 47 37 41 43 43 42
31 30 29 27 25 21 18 18 19 18 16 14 13 13 14 14 14 14 13 13 13 15 16 15 13 13 12 11 10 10 12 12 10 11 12 13 12 12 12 13 16 17 15 14 15 15 14 14 15 15 13 11 10 11 13 13 14 16 17 21 24 26 27 28 28 29 30 32 34 35 36 38 42 52 69 83 80 71 71 67 50 40 43 42 39 42
33 27 25 25 23 20 19 18 17 17 17 15 13 13 13 13 13 13 14 13 13 13 11 11 12 11 11 12 11 11 12 11 10 11 11 12 12 12 12 12 15 18 17 15 15 15 14 15 16 16 15 13 11 11 12 14 15 15 16 18 21 23 25 27 29 31 34 36 38 41 44 49 53 57 68 84 87 79 74 69 60 54 56 55 49 49
38 29 24 22 20 19 19 18 17 17 17 16 14 13 13 13 14 14 14 14 14 13 11 11 12 11 10 12 12 12 12 11 11 10 11 12 12 11 12 12 13 17 18 17 16 15 15 16 17 16 16 15 13 11 12 16 18 19 21 23 25 28 30 32 35 37 39 39 38 40 41 45 52 55 65 84 96 93 86 80 75 70 69 70 64 58
43 38 31 26 24 22 19 18 18 16 16 16 15 14 13 13 13 13 13 14 14 13 13 14 14 12 11 12 12 11 12 12 11 10 10 12 12 12 12 12 13 16 19 18 17 16 17 17 17 17 16 16 15 13 13 17 20 23 26 28 30 33 34 36 37 37 37 36 35 35 35 38 44 46 58 84 99 92 81 75 74 72 71 74 72 65
46 44 38 33 31 27 24 22 19 17 19 20 17 15 14 13 12 13 13 14 14 13 14 14 14 13 12 12 12 11 11 11 11 10 10 11 12 12 11 12 13 15 18 16 14 16 18 18 18 18 17 17 17 17 17 20 23 26 28 29 31 35 37 38 37 35 35 35 35 37 36 37 41 43 50 68 79 74 68 71 75 76 77 82 82 75
48 46 42 38 35 32 30 26 22 20 23 21 17 15 15 14 13 13 12 12 13 13 13 13 13 13 13 12 12 12 12 11 11 11 11 10 12 12 11 12 12 14 16 14 13 17 19 18 18 19 18 18 19 20 21 22 24 26 28 31 35 38 37 34 30 27 25 24 25 27 31 34 39 46 52 56 59 58 55 62 75 82 84 88 89 84
47 45 41 39 38 36 33 29 26 26 23 19 16 15 15 14 14 13 13 12 12 12 12 11 11 12 12 12 12 12 12 12 12 12 12 11 11 11 12 12 11 13 15 14 15 19 20 19 19 19 20 20 20 22 23 24 26 29 32 37 38 36 31 24 20 16 14 14 14 15 20 26 30 38 48 50 49 47 42 50 72 82 78 77 83 87
47 46 41 39 38 37 34 30 29 26 22 19 18 17 15 14 14 14 14 14 13 13 12 11 11 12 12 11 11 11 12 12 12 13 13 12 11 11 12 12 11 13 14 13 16 21 21 19 19 20 22 22 23 24 26 28 31 35 38 38 34 28 23 19 17 16 15 16 17 17 18 19 19 24 33 35 35 35 33 44 70 83 77 75 83 89
49 46 43 42 39 36 35 32 28 26 26 23 19 17 17 15 14 15 15 14 13 12 11 11 10 10 11 10 10 11 13 12 12 12 13 12 12 12 12 12 12 13 13 13 17 23 23 20 20 22 24 26 27 28 31 34 37 38 36 31 27 24 22 22 21 22 22 22 22 23 22 20 20 23 28 30 30 29 26 33 53 69 74 78 83 83
48 45 45 44 40 37 38 35 30 30 32 28 21 18 17 16 15 15 14 14 14 12 11 10 10 11 10 10 10 12 14 13 13 13 13 13 13 12 12 13 12 13 13 13 18 25 24 21 21 23 26 29 31 33 36 37 35 32 28 26 26 26 25 26 26 25 26 26 25 24 23 24 27 28 29 28 24 24 30 39 55 71 77 82 87 85
44 43 46 46 41 40 43 41 34 32 34 30 24 20 18 17 15 15 19 20 15 12 11 9 9 10 10 10 11 13 14 14 13 13 13 13 12 12 12 12 12 13 13 14 20 27 25 22 23 26 27 30 33 35 36 34 30 28 27 27 29 29 29 31 30 28 27 26 25 23 24 28 31 29 26 23 21 31 45 56 74 90 88 83 88 90
40 43 45 45 41 41 46 46 38 32 34 34 29 25 22 20 18 21 28 26 15 11 11 10 9 10 10 12 14 14 14 14 13 13 14 14 14 13 13 14 13 13 14 18 25 29 27 25 26 29 30 32 34 34 32 30 28 27 29 30 31 33 33 32 30 29 28 27 26 26 28 32 31 26 22 20 24 39 51 60 83 99 87 74 79 83
38 43 44 44 42 40 46 52 46 38 39 40 36 34 31 29 30 31 29 22 14 12 13 12 12 13 13 15 16 16 16 16 16 17 17 17 17 16 16 16 16 19 24 28 31 31 30 29 30 32 33 34 34 33 31 30 30 31 33 35 35 34 33 30 29 29 28 29 31 33 34 33 28 24 22 20 26 41 49 60 86 101 88 75 77 79
41 46 47 45 44 42 45 53 51 45 44 44 41 40 39 38 38 33 24 18 17 18 18 18 19 19 19 19 19 19 19 18 18 19 20 19 19 20 21 21 22 27 34 35 34 34 33 33 34 34 34 34 33 32 31 31 34 36 37 37 36 34 32 30 31 32 31 33 37 37 35 31 26 23 22 20 26 37 45 58 83 98 93 86 83 80
42 47 50 48 47 44 47 57 60 51 46 46 44 41 41 41 37 31 27 27 26 24 23 23 21 20 21 21 20 20 21 20 21 22 23 23 23 23 26 29 31 34 36 35 34 35 36 37 37 36 35 34 34 34 35 37 38 39 39 38 37 36 34 33 35 36 35 36 37 34 29 26 25 24 23 23 28 35 42 57 79 95 98 94 86 79
37 41 47 51 51 47 49 66 77 65 51 48 48 44 41 40 37 36 35 36 36 34 31 29 28 28 27 24 22 22 23 23 25 28 29 30 31 31 33 36 37 37 36 34 33 33 35 36 38 39 39 38 38 40 41 42 41 41 40 40 39 37 36 38 40 39 37 33 29 26 24 24 24 23 24 28 33 37 45 60 78 93 99 93 82 79
35 32 35 45 53 49 46 61 78 73 57 51 54 51 46 44 45 47 46 45 48 48 44 39 40 41 38 34 30 30 31 31 33 37 38 38 38 38 38 39 40 39 37 35 34 33 34 34 36 39 42 43 43 43 42 41 41 42 42 42 40 38 37 39 38 35 32 28 25 23 24 25 25 27 31 36 37 39 49 61 70 80 85 80 74 78
42 37 35 42 53 56 55 63 75 76 68 64 65 64 61 58 58 58 56 55 56 56 52 48 48 49 48 47 44 42 42 44 46 47 47 45 45 45 44 43 44 43 42 41 40 39 40 40 40 42 44 44 42 40 40 41 44 43 40 38 38 38 37 37 37 36 36 36 31 25 25 29 33 35 38 37 35 41 55 64 65 68 70 69 70 74
51 44 40 44 51 58 62 66 69 70 66 64 63 63 61 61 60 59 58 57 57 55 54 53 52 52 53 53 52 50 51 53 54 54 54 54 54 53 52 51 50 50 50 49 48 48 48 47 45 43 41 39 37 37 39 42 44 42 39 39 41 42 42 42 43 43 47 48 39 29 31 39 41 39 37 34 35 47 63 69 68 66 64 65 69 72
62 52 46 45 46 49 56 62 65 66 63 59 58 58 57 56 56 55 55 55 54 53 53 52 52 52 52 52 52 52 53 54 55 55 55 56 57 56 55 55 54 52 52 51 48 47 46 44 42 40 38 38 39 40 41 42 42 43 44 45 45 43 43 45 44 44 46 44 37 34 40 44 40 36 35 33 37 54 71 75 72 69 67 68 71 74
67 63 56 47 42 43 51 58 63 65 65 62 59 57 56 55 54 54 54 54 53 52 52 52 51 50 50 50 50 50 51 51 53 53 52 52 52 52 52 52 51 51 50 47 45 44 44 44 44 44 45 45 45 46 45 44 44 44 44 44 44 43 45 43 37 35 36 37 38 41 44 41 36 35 37 36 43 62 79 81 76 73 72 72 75 80
74 77 69 55 45 42 44 48 52 58 64 66 63 60 58 57 56 55 55 55 55 54 52 52 51 51 50 49 48 48 49 49 49 50 50 49 48 48 47 47 47 47 46 46 46 46 46 46 47 46 46 46 45 44 43 42 40 36 32 33 36 38 36 29 25 30 39 44 44 43 39 37 37 38 38 37 43 61 80 88 86 83 81 80 82 88
83 85 76 63 51 42 38 39 44 50 55 57 58 59 58 56 57 56 55 54 54 54 53 52 52 52 53 53 52 50 48 47 47 47 47 47 46 46 45 45 45 45 44 44 44 44 43 43 44 43 42 41 39 38 36 32 29 24 20 20 22 22 21 22 29 42 49 47 42 39 38 39 39 38 39 40 40 48 64 79 89 93 93 92 91 91
Wind_Speed
34 37 40 42 41 39 36 32 29 25 22 20 21 27 31 31 30 30 30 29 29 31 33 34 33 32 28 25 20 13 12 14 13 12 14 16 20 22 23 22 21 19 18 19 21 21 21 21 21 21 20 20 20 19 18 18 17 16 15 14 13 12 12 12 11 11 11 10 10 11 12 13 14 13 13 13 14 15 16 17 16 17 17 16 16 16
33 38 42 43 41 37 33 30 27 24 23 20 21 31 33 31 32 31 30 30 29 29 32 34 34 34 32 28 26 22 18 15 13 9 9 12 16 19 22 22 21 20 20 22 23 23 23 23 23 22 21 20 19 19 17 16 16 16 15 14 13 13 12 12 12 11 11 11 11 12 12 12 12 12 10 10 13 14 15 14 14 14 13 13 13 14
34 41 42 38 37 35 31 30 27 24 24 20 22 31 32 31 31 28 29 30 28 27 29 33 34 34 35 31 28 27 23 18 15 13 9 9 13 16 19 21 21 21 22 24 24 24 24 24 24 23 22 20 19 19 17 16 17 17 16 15 15 14 14 14 13 12 11 12 12 12 11 11 10 8 8 8 10 10 9 8 7 6 6 7 7 8
34 38 39 35 33 34 32 30 28 26 25 21 23 30 32 33 30 24 27 30 29 28 28 29 31 35 36 34 32 29 26 23 19 17 14 11 12 14 17 19 21 22 22 23 24 25 25 25 25 24 22 21 20 20 19 18 18 17 16 15 15 14 15 14 13 12 13 13 12 11 11 10 10 9 9 9 8 8 7 6 5 5 4 3 2 2
34 32 34 35 32 33 33 32 32 29 26 24 24 29 34 37 33 27 28 29 28 28 29 25 23 31 37 36 36 32 28 27 23 21 20 16 13 14 18 20 22 22 22 22 22 22 22 23 24 23 21 21 22 21 20 19 19 17 16 15 15 16 15 14 14 14 14 13 12 12 12 12 13 13 13 13 13 12 11 10 9 8 7 6 5 3
34 30 30 34 34 33 33 34 35 32 29 26 26 28 32 35 34 30 27 25 23 23 31 26 14 23 36 36 34 32 30 30 26 24 23 19 16 18 20 20 21 23 22 21 20 18 19 20 21 22 23 23 23 22 21 20 18 17 17 17 17 17 16 16 16 15 14 14 15 16 16 17 16 16 15 14 13 13 12 12 11 10 9 9 8 8
33 31 29 30 33 34 33 35 36 34 31 29 29 27 27 30 30 27 25 23 22 23 31 31 20 19 29 32 31 29 29 30 29 27 25 23 21 21 21 19 19 21 22 20 19 18 18 17 19 21 24 25 24 23 22 21 20 19 19 18 19 19 18 18 18 17 16 16 18 19 19 19 17 15 14 13 12 12 12 12 12 11 11 11 11 11
32 33 30 28 31 35 37 36 36 35 34 33 31 26 24 26 25 22 22 21 26 29 26 29 30 21 23 32 31 27 27 28 29 29 27 26 25 25 23 20 18 19 21 21 20 19 18 16 17 19 22 23 23 23 23 22 21 20 20 19 19 19 19 20 19 18 17 17 17 18 17 16 15 14 13 12 11 11 11 12 11 11 11 10 11 11
29 32 33 30 29 35 39 38 35 34 34 33 30 25 24 25 24 23 20 20 26 25 16 23 29 17 19 34 32 27 29 30 31 31 29 28 26 26 26 23 21 19 20 22 21 20 18 16 16 18 20 21 23 24 23 23 22 21 21 20 20 20 19 19 19 18 17 16 16 15 15 14 14 13 12 11 10 10 10 10 10 9 9 9 9 9
24 25 30 32 30 34 37 35 35 34 33 31 27 24 24 24 25 23 21 23 24 18 14 23 28 15 15 32 30 26 29 29 27 27 27 28 27 27 27 26 24 21 21 22 21 20 19 17 17 18 20 21 23 24 24 23 23 22 22 21 20 19 19 18 18 17 16 15 14 13 13 13 13 12 11 10 10 9 9 8 8 8 7 7 7 7
23 17 22 31 33 31 31 33 34 33 32 31 27 24 22 22 25 23 21 23 18 12 17 24 27 19 12 24 29 27 27 24 22 23 25 26 27 26 27 28 27 25 23 23 22 21 20 19 20 21 22 23 24 25 26 25 25 24 23 21 20 19 18 18 17 17 15 14 13 13 12 13 13 13 12 11 10 9 8 7 6 5 5 5 6 6
28 20 18 27 35 30 26 31 35 33 32 31 27 25 21 16 17 16 15 18 10 6 17 24 26 23 15 23 31 28 26 23 21 21 20 21 23 24 24 25 27 28 26 25 24 23 22 22 24 24 24 24 26 27 28 28 26 25 23 21 21 20 18 17 17 16 16 14 13 13 13 13 13 13 12 12 10 9 7 6 4 3 2 2 3 4
29 30 22 20 28 31 28 28 32 33 33 31 27 28 21 10 9 9 6 9 8 8 16 20 20 21 22 31 34 28 27 24 20 17 16 16 19 21 21 22 25 28 28 27 26 25 25 25 25 24 24 24 26 27 29 29 28 26 24 22 22 20 19 18 17 17 16 16 14 13 13 13 13 12 12 11 10 9 8 6 5 3 1 2 3 5
22 30 31 24 22 28 31 30 30 33 36 34 29 31 23 8 6 7 4 2 5 10 18 18 14 14 20 30 32 27 26 23 18 15 16 18 20 20 19 19 22 26 28 28 27 27 27 27 26 25 24 24 24 25 27 29 29 27 25 24 22 21 21 20 18 18 17 17 15 14 14 14 13 12 11 10 10 9 9 8 6 5 4 5 6 7
18 19 32 35 26 24 30 34 33 32 36 38 34 32 27 18 12 8 5 4 4 7 14 15 10 7 12 23 29 25 23 22 19 17 16 17 17 18 19 17 18 22 27 29 29 29 28 27 27 26 25 25 24 23 25 27 29 28 27 25 23 22 22 21 20 19 18 18 17 16 16 16 15 14 13 11 10 9 9 9 9 8 7 8 9 10
23 19 28 36 31 26 25 30 34 30 30 36 37 35 31 30 25 12 7 11 9 5 8 12 12 14 17 25 28 23 21 21 18 17 17 16 16 17 19 18 17 19 24 26 27 29 29 28 28 29 28 27 25 24 24 25 26 27 26 25 24 24 24 24 23 21 20 19 20 19 19 18 17 17 16 15 13 12 12 12 12 12 11 11 12 12
21 21 27 29 30 31 26 24 31 32 28 29 34 37 35 33 30 18 9 11 11 6 7 12 13 17 21 23 22 21 21 20 18 17 18 18 18 19 19 18 18 19 21 22 23 24 26 27 28 30 30 29 27 26 24 23 23 23 23 22 22 24 26 26 26 24 23 22 22 21 21 21 20 20 19 18 17 16 15 15 16 16 15 15 15 14
20 19 27 29 27 32 31 25 26 31 30 29 32 38 36 27 25 23 12 6 8 7 6 12 14 15 14 12 13 16 16 18 19 19 19 20 20 20 19 19 20 20 19 19 19 20 22 24 26 28 30 30 29 27 23 21 20 20 21 22 21 22 24 25 25 26 26 25 24 24 24 24 23 23 21 21 21 20 19 19 18 18 18 17 18 17
23 17 20 27 27 27 32 31 28 28 32 33 33 35 32 21 19 22 14 5 7 7 4 10 15 18 20 17 16 18 16 15 17 17 20 22 21 19 18 18 20 21 20 18 19 20 22 23 26 27 28 29 30 28 25 22 20 20 22 22 22 21 21 22 23 25 26 27 27 27 27 27 26 25 24 24 24 24 24 23 21 21 20 20 20 19
26 19 15 20 24 23 28 35 35 31 30 33 34 32 31 27 22 23 19 11 8 6 5 7 10 15 25 26 23 24 22 17 15 18 22 24 23 21 17 17 20 22 20 19 21 23 24 25 26 26 26 27 28 27 27 25 24 23 22 22 22 21 21 22 23 23 24 26 27 29 30 29 29 28 28 27 27 27 27 26 24 24 23 22 22 22
28 24 17 16 21 24 28 35 39 36 32 34 33 29 29 30 24 21 22 21 15 7 5 7 7 12 22 25 22 22 23 20 18 19 22 23 24 21 17 17 20 21 20 20 23 23 22 23 25 25 24 24 26 26 27 27 26 25 23 23 23 23 23 24 23 23 24 25 26 28 30 31 31 31 31 30 30 29 29 29 27 25 24 24 23 22
30 28 23 19 21 27 30 32 35 37 38 40 35 31 31 31 25 18 14 20 22 14 7 7 8 12 20 25 23 21 22 20 20 20 19 19 20 20 19 18 18 18 19 21 22 20 18 19 23 25 23 23 25 26 28 28 27 26 26 25 25 26 26 26 26 25 24 24 26 28 30 32 34 34 33 33 33 32 32 33 31 28 25 25 24 24
28 30 28 24 25 28 28 28 29 31 38 44 41 37 36 34 33 26 15 16 20 18 14 10 9 12 17 21 21 21 21 19 17 19 20 19 20 20 21 20 16 16 20 21 20 18 15 15 20 24 24 24 25 26 27 28 27 27 26 26 26 28 27 26 26 25 24 25 26 27 29 32 35 37 37 36 36 35 35 35 35 32 28 26 26 27
23 29 27 25 28 32 29 28 29 29 33 40 44 45 42 38 39 37 30 25 22 19 17 9 7 12 13 13 15 19 22 22 18 18 19 20 20 20 20 18 15 17 22 22 20 18 15 13 18 23 25 27 27 27 28 28 28 28 28 28 28 28 27 26 26 26 26 26 26 28 30 33 37 41 41 40 39 39 37 37 37 35 31 29 29 29
19 26 26 20 17 21 23 23 28 31 31 34 40 46 47 44 40 38 37 35 27 24 24 15 9 13 16 15 17 18 19 22 23 22 21 20 18 17 18 19 16 19 24 23 20 18 14 11 12 18 24 28 29 28 28 28 28 29 30 29 29 29 27 27 27 27 26 26 29 30 31 35 42 45 43 42 42 41 40 40 40 37 35 33 31 29
16 22 26 22 14 11 14 17 25 31 31 31 33 37 43 45 42 38 35 31 24 22 28 27 17 15 19 20 20 21 22 24 26 27 27 26 22 19 19 20 19 22 25 23 21 17 14 11 9 12 19 24 26 28 29 29 29 30 31 30 30 29 27 26 27 27 27 28 30 31 33 40 44 44 44 44 44 43 43 43 43 42 39 37 36 35
18 23 26 29 28 25 24 25 30 32 32 34 34 33 35 38 41 42 36 31 27 22 27 34 28 22 25 27 26 27 26 25 25 26 27 27 23 20 18 19 21 25 24 23 22 18 15 12 11 13 17 19 22 25 26 27 28 30 30 29 28 28 27 26 27 26 26 27 29 31 36 40 41 43 45 45 44 44 45 45 48 50 46 44 44 44
21 25 26 29 33 34 34 35 36 35 34 36 37 37 35 33 36 42 42 41 36 26 25 35 36 32 34 34 33 32 28 25 22 22 26 27 22 20 19 18 22 26 24 23 23 20 16 13 13 15 18 20 20 21 23 24 25 26 27 27 27 27 26 25 25 24 24 25 27 31 33 35 37 40 45 48 46 44 45 46 49 53 51 48 49 49
19 26 28 30 33 33 33 35 38 39 37 36 36 36 36 34 35 39 43 46 44 36 33 36 37 37 38 36 33 32 29 26 22 19 24 27 22 20 19 20 24 27 25 23 24 21 17 16 16 16 19 22 22 22 22 22 22 23 23 23 23 22 22 21 21 22 23 25 28 29 31 33 37 39 45 53 53 45 44 47 50 53 51 49 51 52
12 21 25 27 31 34 33 33 37 39 39 39 38 35 33 32 34 37 39 40 42 45 46 43 40 41 41 35 31 30 28 29 26 22 24 25 21 19 19 22 25 28 28 25 23 21 18 19 18 17 19 23 24 24 24 21 20 19 18 18 17 17 18 19 20 23 25 29 30 32 34 36 38 39 43 52 54 47 43 46 49 51 50 50 53 54
6 15 18 21 25 29 33 34 35 38 40 41 42 39 35 31 31 35 38 38 39 42 45 45 45 46 43 36 30 29 29 30 28 24 24 23 21 20 21 22 25 28 30 27 24 23 22 22 21 19 20 22 23 25 24 21 19 18 16 15 15 17 20 22 25 27 29 32 33 35 37 36 36 37 38 44 51 50 41 36 37 40 44 48 53 57
6 8 10 15 18 22 28 30 31 36 40 41 44 44 42 38 35 35 36 36 37 37 39 44 47 46 43 38 33 31 32 32 31 28 25 23 22 22 22 22 23 26 29 28 26 26 26 25 23 21 22 22 23 25 24 22 19 17 16 17 19 22 25 27 29 30 32 34 36 37 39 37 36 37 36 39 47 47 36 28 26 30 37 44 51 56
11 8 8 9 12 18 23 24 26 29 28 31 40 45 44 43 42 40 38 36 34 33 34 39 39 35 33 33 32 33 33 33 32 30 28 26 25 24 23 23 22 25 27 26 26 28 29 27 24 22 23 23 23 23 22 21 19 19 21 24 26 27 29 30 30 32 34 36 37 38 39 38 37 37 36 37 40 37 30 26 25 26 32 38 47 55
15 13 13 10 9 14 17 18 20 18 14 20 32 37 39 42 42 41 41 40 38 36 35 35 30 23 22 25 28 30 31 33 33 31 30 29 28 26 25 24 23 24 27 27 27 30 31 28 25 23 23 24 24 23 22 22 23 25 28 29 29 28 28 29 30 32 33 34 35 36 37 38 37 36 34 32 32 30 30 31 29 28 32 38 46 54
17 16 16 13 12 14 15 13 12 10 15 28 32 29 31 36 38 39 40 40 40 40 39 38 33 26 22 23 24 25 28 31 32 32 33 33 31 29 28 26 25 26 27 28 30 34 33 29 27 26 25 24 24 24 26 27 29 30 31 30 28 27 27 27 28 29 29 28 29 31 33 35 36 36 34 31 31 31 32 32 29 29 34 39 47 54
17 16 16 15 14 13 11 8 7 8 17 30 34 30 29 30 31 34 37 38 38 38 38 37 34 30 27 26 25 26 27 29 30 31 34 35 35 33 31 30 28 27 26 27 32 37 34 29 28 28 28 28 28 29 31 32 32 31 30 28 26 25 24 24 24 24 23 23 24 26 29 32 35 37 34 31 32 34 35 35 33 32 34 38 45 50
16 17 16 13 11 9 9 9 10 11 14 22 29 30 30 31 31 30 32 33 32 33 34 33 31 31 29 28 26 26 27 28 29 30 32 35 36 35 33 33 31 27 27 29 33 36 33 28 28 30 31 33 33 34 34 33 30 28 27 26 24 22 22 21 21 20 20 20 22 24 26 30 33 34 32 31 33 34 38 40 37 36 37 38 39 37
19 18 15 10 10 11 10 9 9 9 10 17 24 27 28 30 31 30 31 31 30 28 28 29 31 31 30 28 28 28 27 27 27 28 30 34 36 35 34 34 31 29 30 32 33 34 34 32 32 33 32 32 33 33 32 30 27 26 24 22 20 20 19 19 19 19 19 20 22 24 26 28 30 30 30 32 33 34 38 39 38 39 40 35 30 25
23 21 15 13 14 13 10 8 9 9 10 16 23 26 26 27 29 29 27 28 30 27 24 27 31 31 30 29 29 29 27 26 27 28 30 32 35 34 33 33 33 33 35 34 31 33 37 35 34 34 32 31 31 30 29 27 26 24 22 20 19 19 19 19 19 20 20 21 23 25 26 26 28 29 29 30 31 33 35 32 31 34 32 23 18 18
25 19 15 16 17 15 11 9 13 14 13 17 23 26 25 26 28 25 19 20 27 26 23 26 29 29 29 30 29 27 27 27 28 29 30 31 32 32 31 32 33 33 33 30 29 34 37 35 34 32 30 30 29 27 26 25 24 22 20 19 19 19 19 20 20 20 21 22 24 25 26 27 28 29 29 28 29 31 30 24 21 21 18 13 12 16
29 22 17 17 17 15 12 10 13 16 15 19 23 24 24 24 25 23 18 20 26 26 24 25 26 26 27 26 24 24 25 24 23 23 24 25 25 25 25 26 27 26 26 26 29 33 33 32 31 29 29 29 28 27 25 24 22 20 18 17 17 17 17 18 19 20 21 22 24 25 27 28 29 28 27 27 27 28 25 18 14 15 16 15 15 17
32 27 22 19 18 15 12 11 11 12 14 18 21 22 22 22 22 24 25 25 26 27 25 25 23 23 23 24 23 21 20 19 17 15 16 16 16 17 18 20 23 24 27 29 30 30 30 30 31 31 31 30 29 27 25 23 19 17 16 15 15 15 16 17 18 19 21 23 25 27 28 30 29 27 26 26 26 26 22 15 12 16 19 18 18 19
36 29 21 18 16 13 9 7 7 9 13 16 17 20 24 24 23 26 28 27 28 30 30 29 27 25 24 24 23 20 17 15 15 14 15 15 15 16 18 20 24 27 31 32 32 31 30 30 31 31 30 28 26 24 21 19 18 18 17 17 19 20 21 20 20 20 22 24 26 29 30 29 27 25 25 25 24 23 18 13 11 15 18 20 21 21
36 32 25 19 13 9 6 5 7 11 13 14 15 18 23 24 22 24 27 27 27 28 29 29 28 26 23 22 21 19 17 16 17 19 21 22 22 22 24 26 29 30 31 32 32 32 31 30 29 28 25 23 21 19 16 16 18 21 23 26 27 27 24 22 21 21 23 25 27 29 29 27 25 24 24 23 22 19 14 11 11 13 17 20 20 20
28 33 35 26 13 8 8 7 4 8 13 15 17 19 20 20 19 21 25 27 28 27 27 29 29 27 25 24 23 21 20 21 23 26 28 30 29 29 30 32 32 32 32 32 32 33 33 32 30 27 22 19 18 18 19 22 25 27 28 28 26 24 22 21 21 21 22 24 26 27 27 25 24 23 22 20 18 14 10 9 10 12 16 19 19 21
23 29 34 28 13 6 5 3 10 24 29 28 30 32 31 28 27 26 28 30 32 31 30 30 30 29 28 27 26 27 27 28 31 32 33 32 32 32 32 32 32 31 31 30 29 27 26 25 24 23 22 21 21 23 27 31 30 25 22 20 20 21 22 22 21 21 22 25 28 29 27 24 23 21 18 17 14 11 8 8 9 12 16 19 20 22
24 28 30 29 22 14 12 13 17 27 35 36 36 37 36 35 34 32 32 32 33 32 32 31 30 29 28 27 27 28 30 31 33 33 32 31 30 29 28 27 26 25 24 23 21 21 20 20 20 22 23 26 28 30 32 32 28 23 20 18 20 24 26 26 26 28 31 33 33 30 26 22 19 17 15 14 11 7 5 6 8 12 15 17 19 22
25 29 31 32 30 21 15 14 16 21 27 31 32 33 34 34 32 30 30 31 31 30 30 29 27 25 24 24 24 24 26 28 29 30 29 27 25 24 24 23 23 22 21 19 18 18 19 20 22 23 24 25 27 29 29 28 28 27 27 28 29 32 33 34 35 37 37 35 32 26 21 18 15 13 12 11 7 4 4 6 10 13 15 17 19 22
26 27 29 33 33 28 24 22 18 16 20 24 26 26 28 30 29 27 26 25 25 25 24 24 22 19 17 18 18 18 20 22 24 25 24 22 21 19 18 18 19 19 18 18 17 17 18 18 19 21 23 23 24 27 29 30 31 32 33 34 36 38 39 38 36 34 31 27 24 20 17 14 12 10 8 7 4 3 5 9 12 15 18 20 22 23
24 22 25 32 35 33 33 33 29 22 19 22 24 22 21 22 23 22 20 18 19 20 19 19 19 16 12 12 12 12 14 14 15 17 17 16 16 14 13 13 14 14 15 16 16 17 18 19 20 23 25 26 27 28 30 31 31 29 27 28 32 34 34 31 29 25 23 20 18 16 13 10 8 6 5 3 2 4 8 11 14 17 20 23 24 22
25 24 28 35 37 34 32 32 35 32 24 19 19 19 18 18 18 17 15 13 14 16 15 16 17 14 10 8 7 7 9 10 10 11 12 12 12 11 11 12 13 15 16 18 19 20 21 22 24 25 26 26 27 26 26 25 24 21 20 22 24 25 25 24 22 21 19 16 14 11 8 5 4 4 2 2 2 4 8 10 12 14 17 20 22 22
Wind_Direction
201 204 205 206 208 208 208 210 213 219 226 237 235 222 214 212 212 217 221 223 222 222 225 229 234 238 239 238 239 248 254 240 231 233 230 223 219 218 217 213 211 208 208 213 215 214 215 215 216 217 215 212 210 208 204 203 203 203 202 200 199 198 201 202 201 205 210 212 212 214 219 221 224 224 224 231 240 245 247 248 251 255 259 261 262 263
205 210 211 211 213 214 213 213 214 217 222 232 231 217 212 213 215 218 219 222 224 223 228 233 236 240 240 241 240 242 251 248 238 244 250 238 227 222 219 215 212 208 209 215 216 217 218 218 219 219 219 218 217 216 213 209 206 204 202 199 198 198 197 196 198 202 206 209 211 213 217 219 223 225 221 224 232 239 244 245 247 251 256 260 261 261
210 215 215 213 214 215 214 214 213 214 218 227 228 217 212 213 213 214 216 220 224 225 231 236 238 241 243 244 245 244 249 255 249 247 251 243 234 227 221 216 213 210 211 215 219 221 221 221 221 219 218 218 219 219 216 212 208 206 204 201 201 198 193 192 195 198 202 206 208 209 211 213 218 221 217 219 224 226 229 228 228 232 238 246 251 254
212 219 216 211 212 212 209 209 208 210 213 220 225 217 214 217 212 208 215 221 225 228 234 239 240 244 246 247 248 247 248 252 249 244 239 229 226 226 223 218 215 213 213 216 220 222 223 223 222 219 216 216 217 219 216 211 209 207 205 203 200 196 192 192 190 191 195 196 198 198 199 198 195 191 183 178 173 164 154 147 142 138 143 154 169 215
215 221 217 211 211 211 208 205 204 206 207 214 224 221 218 219 217 214 218 221 225 231 237 241 249 252 249 248 249 249 249 250 246 243 239 229 217 213 216 215 213 213 213 217 222 225 225 226 225 221 216 214 217 219 215 211 209 206 202 199 195 191 189 188 185 186 188 186 185 183 179 173 167 161 153 145 140 132 124 118 115 113 109 102 93 80
216 220 219 213 211 210 208 206 205 204 206 211 221 225 223 222 221 218 221 222 222 231 239 237 246 260 254 251 251 250 249 249 247 246 244 237 222 213 212 211 209 209 210 214 220 225 228 227 226 220 214 213 215 215 211 209 208 202 197 192 188 186 183 181 181 181 179 175 171 164 159 155 153 151 146 141 135 127 118 111 108 104 96 85 73 61
216 216 218 216 212 210 208 207 207 206 208 212 218 223 225 224 222 219 222 224 220 231 243 237 230 252 262 259 257 253 251 250 249 250 251 245 235 226 220 213 210 208 206 205 206 212 216 216 215 212 211 210 207 207 208 207 202 195 190 185 183 181 178 176 177 176 174 170 164 158 155 154 154 152 147 141 133 124 116 108 104 97 87 77 67 59
218 213 214 215 213 212 209 207 207 206 208 215 220 220 221 219 215 215 220 222 225 232 241 236 230 240 262 263 262 259 255 255 253 252 253 250 244 239 232 223 215 210 204 199 197 199 200 200 203 203 203 201 198 202 205 202 196 189 183 179 179 177 175 175 176 177 177 174 169 164 161 159 156 153 148 142 134 125 118 110 105 98 87 77 68 60
220 215 213 213 211 212 213 210 207 206 209 217 221 220 221 217 211 214 221 224 227 228 229 228 226 229 254 256 260 261 258 259 258 256 256 253 249 245 241 233 223 214 205 199 196 196 195 195 195 193 194 194 195 199 200 196 191 184 179 177 177 177 176 176 177 181 184 184 181 177 173 167 161 159 155 149 140 132 125 116 108 99 89 78 70 60
223 221 217 215 215 215 215 213 210 209 211 217 219 218 218 216 215 221 229 227 221 218 222 227 222 215 248 253 255 258 258 259 261 262 261 258 253 249 246 241 232 221 212 207 202 197 194 192 190 188 189 191 194 196 194 192 188 183 180 179 179 178 177 177 178 183 187 188 189 187 184 179 174 171 167 160 151 143 136 127 114 102 90 76 67 57
221 223 219 217 220 219 215 214 211 211 214 215 214 210 207 210 215 220 223 218 211 212 228 233 227 219 246 262 257 256 259 267 275 274 271 267 261 254 248 243 236 230 224 217 210 204 197 191 189 191 191 191 194 195 192 189 187 185 185 183 181 181 181 180 180 183 187 188 187 187 188 188 186 184 179 172 164 157 150 141 129 110 92 76 63 51
220 216 211 214 220 219 211 211 210 210 212 213 211 204 196 192 201 205 207 208 204 220 229 237 237 224 231 258 260 260 264 275 285 281 276 273 268 264 258 249 241 236 232 225 216 209 204 198 194 193 194 194 196 196 192 189 189 190 190 188 186 187 188 187 186 187 189 187 184 184 187 189 190 191 187 183 178 175 171 164 157 134 94 60 39 27
224 219 210 207 217 217 208 206 209 209 210 212 208 199 190 166 177 190 182 200 212 223 227 235 237 226 232 251 259 265 269 275 282 279 272 270 273 276 272 261 250 241 236 234 226 217 211 208 203 199 198 200 201 200 196 193 193 195 196 195 194 195 196 196 195 195 195 192 189 188 188 188 190 191 189 187 188 189 190 193 197 203 246 316 339 344
223 224 217 209 213 215 209 206 206 204 206 208 201 196 195 172 171 192 164 191 217 221 229 232 232 230 239 252 259 262 265 273 280 275 271 271 277 281 277 267 258 246 240 241 236 226 219 215 213 209 207 208 209 206 202 199 199 200 202 202 203 203 203 204 205 204 204 202 200 200 200 199 196 194 192 191 193 200 206 212 221 236 261 289 309 321
211 222 220 214 212 211 208 210 210 206 207 211 207 207 208 200 200 199 177 193 185 204 222 216 215 219 226 248 259 263 265 270 270 268 269 270 270 272 274 268 258 247 241 241 238 233 226 220 218 217 215 215 215 212 209 207 206 206 207 209 210 211 211 212 212 212 212 212 212 215 215 214 211 207 205 204 208 219 229 234 242 253 266 280 293 303
212 225 224 216 214 213 208 211 215 212 212 214 212 213 215 214 215 212 195 204 194 182 199 193 213 237 239 253 261 263 266 265 262 262 260 259 256 258 264 263 257 250 244 240 237 235 231 224 221 220 219 218 217 215 213 213 213 212 214 217 218 218 218 218 218 219 220 219 221 225 227 227 224 221 220 222 227 236 245 252 257 260 265 274 283 291
210 225 229 220 216 217 213 211 214 212 213 214 209 210 216 220 219 214 200 198 200 215 207 195 222 246 250 261 261 254 260 262 262 264 254 246 245 246 250 252 251 251 248 243 239 238 235 230 226 223 221 219 217 217 217 216 218 219 220 222 222 222 223 223 224 225 226 226 227 231 234 236 234 233 234 236 239 243 248 256 262 265 268 273 278 283
212 223 230 225 220 219 215 215 217 217 217 215 212 214 216 217 218 219 213 180 198 230 217 198 220 242 243 252 252 244 252 258 260 263 255 242 239 243 246 246 242 243 248 249 243 238 236 233 231 228 225 223 221 222 222 221 222 223 223 221 221 223 225 227 228 230 232 233 234 237 239 240 241 241 242 244 246 247 250 256 262 267 269 272 275 280
220 225 231 227 226 223 217 218 222 223 221 220 223 224 217 207 205 210 210 185 201 228 224 198 217 236 236 237 250 252 255 261 261 263 258 246 242 247 248 243 239 235 236 239 233 228 226 227 230 229 227 225 224 224 224 224 223 223 222 221 221 222 223 225 227 230 233 235 238 241 241 242 244 244 245 248 251 252 254 258 262 266 267 270 274 278
224 225 231 226 225 223 217 219 221 220 218 219 226 229 221 214 210 206 210 210 202 219 234 208 209 229 237 244 253 258 260 260 258 265 263 251 247 251 246 238 235 230 228 228 224 219 217 221 225 227 227 226 225 225 224 224 225 224 222 222 222 221 220 223 224 225 230 235 239 243 243 244 245 245 246 249 253 256 257 258 261 263 261 264 270 274
225 223 227 220 215 214 213 217 219 217 215 214 217 218 213 212 211 212 219 217 212 219 218 220 226 224 236 248 254 258 263 259 254 265 265 253 248 248 240 235 233 230 229 226 218 214 215 221 224 223 225 225 225 225 224 225 227 227 227 226 226 225 224 225 226 227 231 237 242 244 245 246 248 248 249 249 252 256 255 254 256 258 256 257 264 269
224 221 224 218 209 212 218 224 224 223 222 220 217 213 210 209 204 207 222 215 214 221 210 221 247 233 238 250 254 258 260 252 249 254 255 250 243 238 238 242 236 230 229 220 211 207 212 220 222 220 218 217 218 218 218 221 224 226 227 227 227 228 228 229 232 234 237 243 246 247 248 249 249 249 249 250 251 253 252 252 255 260 261 259 260 265
230 226 225 225 222 225 231 233 230 229 230 229 226 223 219 215 210 211 217 209 210 219 219 227 252 248 246 248 250 256 252 245 246 245 243 244 240 236 238 238 233 225 217 205 197 198 201 209 217 218 215 214 215 214 213 217 218 219 222 222 224 227 228 232 237 240 244 247 250 252 251 251 251 249 247 246 246 248 250 253 254 259 263 260 258 263
227 225 223 227 232 235 237 236 233 232 230 229 229 228 225 221 219 221 226 224 219 214 208 215 244 239 232 232 245 255 248 243 245 243 241 242 241 241 237 234 233 218 201 190 186 189 188 195 209 214 214 215 216 215 214 215 214 215 218 220 223 227 230 235 241 244 245 248 253 255 254 255 252 247 243 243 245 247 249 251 251 253 258 259 261 265
216 219 218 220 232 234 231 229 229 228 225 225 228 229 228 227 226 226 226 227 227 219 212 216 232 225 219 228 243 242 234 237 243 244 244 240 239 242 240 243 237 204 188 184 184 185 183 183 200 211 215 216 215 215 215 215 215 216 218 221 224 228 231 235 240 242 244 251 256 259 260 258 251 247 246 248 251 250 249 250 250 250 253 256 262 270
234 230 222 213 212 221 220 218 222 224 226 227 229 229 229 228 226 224 221 219 222 220 218 222 227 225 223 230 236 235 236 242 243 245 243 235 234 241 245 249 232 197 188 189 187 185 184 179 181 198 211 216 216 216 215 215 217 219 221 223 225 229 231 234 238 243 249 256 261 264 264 259 255 254 254 253 253 250 249 250 250 250 252 255 260 269
252 244 233 224 222 227 230 229 229 230 231 233 234 234 232 228 226 227 224 219 220 217 219 226 229 230 232 234 237 243 246 244 243 245 239 229 231 243 251 251 225 199 193 194 190 187 186 189 189 188 199 210 215 216 217 216 218 220 222 223 225 229 233 236 241 247 254 260 265 267 265 263 265 265 263 261 258 254 253 253 251 251 255 259 261 265
247 237 233 231 231 234 240 241 239 237 235 236 236 236 235 231 226 225 224 225 226 219 223 232 232 233 239 241 243 247 244 239 241 243 234 227 234 245 250 244 219 202 197 198 196 193 192 200 200 189 192 200 204 209 211 212 214 216 218 221 225 231 235 238 243 248 254 259 262 264 264 268 271 271 270 266 259 256 260 259 252 251 256 260 261 261
243 232 230 229 229 233 240 243 242 240 239 239 239 237 237 235 230 226 227 229 229 226 232 236 234 237 243 242 243 245 239 236 243 244 234 233 239 244 246 240 221 207 205 206 203 200 205 211 204 192 192 195 195 198 200 201 206 209 214 219 223 228 233 237 242 245 249 253 257 261 265 269 273 275 274 266 255 253 260 258 253 255 259 261 260 261
243 236 233 229 229 231 235 239 242 242 241 240 240 239 237 237 236 233 232 233 233 234 239 241 240 243 244 241 243 244 241 243 248 245 238 236 238 243 248 243 230 218 213 212 211 212 216 213 202 193 193 195 195 196 195 194 199 204 210 216 221 227 236 243 248 252 257 260 264 268 270 273 275 277 278 274 267 261 258 254 253 257 262 263 261 263
256 250 243 234 235 238 238 240 241 242 242 240 240 240 237 236 237 234 232 233 233 235 238 239 240 243 242 242 244 244 243 247 247 242 240 237 237 244 244 239 234 225 217 216 221 226 222 210 200 195 196 196 197 198 196 195 198 202 209 218 226 235 243 251 256 260 263 265 267 269 272 276 278 278 283 286 280 274 270 268 263 263 267 266 262 262
326 292 267 244 242 247 245 244 243 243 242 240 238 239 236 235 237 237 234 232 231 232 232 231 233 238 240 242 243 243 244 246 246 247 247 240 236 242 242 235 231 226 220 221 228 232 227 214 204 201 200 199 199 200 200 202 206 213 221 228 235 242 250 257 261 263 265 266 267 269 273 278 281 282 287 290 284 283 291 294 282 276 275 269 261 260
327 322 307 281 261 257 254 252 248 242 238 236 237 238 238 237 238 240 240 238 238 238 234 231 233 237 239 240 240 243 245 245 245 249 250 243 239 243 243 236 228 223 221 225 230 233 231 222 210 206 204 202 201 202 205 212 220 225 229 234 242 251 258 262 264 266 268 270 273 275 277 280 283 284 287 290 291 296 307 306 295 291 287 274 261 257
309 310 306 309 289 273 275 268 250 233 225 236 242 243 242 240 240 240 242 244 245 246 245 246 247 244 237 236 237 241 245 246 246 247 248 244 241 242 241 236 229 223 221 226 233 234 231 223 213 208 207 206 207 210 214 221 227 230 235 244 252 257 260 262 265 269 271 274 277 280 281 282 285 287 289 292 296 299 301 300 299 297 288 274 260 254
292 310 303 304 301 291 289 272 238 221 233 242 245 246 244 243 243 243 246 249 249 248 249 251 252 246 241 241 240 241 243 245 246 246 246 245 241 240 239 234 229 225 224 230 236 233 227 221 215 211 210 210 211 214 218 225 233 239 246 252 254 253 257 261 266 270 272 277 280 282 284 285 287 289 291 293 295 295 296 297 296 292 285 274 263 258
273 312 309 302 300 291 279 252 226 245 249 243 243 245 243 241 239 237 239 243 245 246 246 249 249 247 247 248 247 246 245 244 246 247 246 245 241 240 240 236 232 229 228 235 236 228 220 218 217 216 218 219 219 223 228 235 240 245 248 248 246 250 259 265 269 272 276 281 285 288 290 290 288 288 291 294 295 295 295 293 289 285 282 275 267 264
255 301 307 297 293 286 275 258 249 261 254 237 235 238 239 240 238 236 238 241 243 242 241 244 246 245 246 248 249 250 246 244 247 247 244 239 236 238 241 237 233 231 231 237 236 223 212 213 216 216 219 222 226 230 234 237 240 241 241 241 245 253 261 265 270 277 283 290 295 299 298 294 291 289 292 296 296 293 292 291 289 286 280 274 271 275
237 276 293 292 291 295 294 278 257 254 244 229 228 230 233 238 241 241 239 238 238 238 236 239 243 244 245 247 248 249 245 242 243 244 239 234 232 237 238 233 232 232 230 236 235 220 209 211 216 218 221 225 228 229 230 231 232 234 236 240 248 257 263 270 277 284 292 300 305 306 303 297 293 293 297 299 298 296 294 294 295 294 290 284 280 282
230 258 280 289 292 301 305 275 248 245 238 230 227 225 227 233 235 232 227 225 230 232 231 234 238 241 243 245 245 243 239 234 236 237 236 234 234 236 236 231 230 230 230 235 232 215 208 213 219 223 227 228 226 222 221 223 226 230 236 244 255 266 273 279 285 290 297 304 308 307 303 298 298 301 304 303 302 300 298 299 302 299 294 290 281 265
223 246 275 283 281 292 307 280 253 249 238 223 219 219 221 223 219 213 208 213 221 224 224 229 234 237 240 239 236 233 231 231 233 233 231 230 229 230 230 227 227 228 230 231 221 208 208 215 220 222 222 219 216 214 215 220 226 232 241 253 266 279 285 288 290 294 300 305 306 304 302 301 303 306 308 306 304 301 300 304 308 297 280 268 260 247
217 232 259 274 273 280 300 290 257 246 231 215 211 212 212 206 200 199 202 210 214 217 219 222 224 227 226 222 217 217 218 218 221 222 220 220 219 218 219 220 222 220 215 208 203 203 208 213 213 212 211 211 211 212 216 221 227 235 249 264 276 286 290 291 294 298 302 303 302 300 299 302 306 309 309 306 302 299 301 308 301 273 253 253 257 246
206 221 247 268 270 270 285 287 263 244 226 214 211 205 197 191 192 201 208 208 205 202 198 194 194 196 194 188 186 190 194 196 202 210 214 217 219 215 211 211 210 201 192 189 191 196 201 204 205 206 207 210 212 215 220 226 234 243 254 265 276 284 287 288 291 294 297 296 295 295 299 303 307 309 308 304 297 294 299 306 288 255 242 247 255 250
205 211 233 255 258 257 272 286 267 242 220 206 199 193 189 192 199 203 200 194 189 183 178 176 178 179 179 178 179 183 189 196 202 205 206 208 212 208 200 198 198 194 192 193 194 192 191 193 197 201 206 210 213 217 225 233 241 250 258 267 275 279 280 280 282 286 289 291 293 296 301 304 307 308 305 300 292 290 295 299 281 253 238 241 251 247
211 210 218 233 247 249 261 289 272 246 222 193 179 184 189 193 196 193 184 175 170 169 169 171 170 171 177 183 186 191 200 202 196 192 191 189 191 192 189 186 187 190 194 199 202 202 201 201 202 202 205 209 214 222 234 247 257 266 274 278 276 272 270 270 274 280 285 290 296 300 302 304 304 303 300 294 289 290 296 291 268 248 239 241 242 231
211 212 215 224 240 245 247 271 251 180 166 157 152 156 165 169 167 165 163 156 151 152 160 162 158 159 167 175 179 182 185 183 180 179 179 178 179 182 184 183 184 187 191 197 202 206 210 213 214 215 216 224 236 249 261 271 277 279 278 272 264 260 260 264 271 279 286 294 301 303 302 300 298 296 294 290 289 293 296 283 260 240 233 230 220 211
201 204 209 214 216 187 171 155 118 120 122 124 127 127 131 137 138 140 143 142 140 141 147 150 150 149 152 158 166 169 168 168 170 171 172 173 174 176 178 180 182 184 187 192 196 200 205 210 215 220 227 237 252 266 275 279 277 271 263 258 257 260 264 269 276 284 293 303 307 305 299 294 292 291 290 288 290 294 291 277 253 229 221 217 211 209
191 195 203 208 206 185 153 139 127 120 118 120 123 123 125 128 130 133 136 137 137 137 137 139 140 141 144 149 157 160 159 160 163 164 165 166 167 168 170 173 176 178 181 186 193 199 206 217 229 241 248 254 261 271 277 275 264 249 247 257 269 273 275 279 285 290 295 299 300 296 291 288 288 290 288 287 289 292 284 269 250 234 226 221 217 217
186 192 201 207 210 208 189 162 143 130 126 125 124 126 129 131 132 131 132 132 134 134 134 133 133 134 139 143 145 149 153 156 159 161 162 162 164 168 172 175 180 184 191 200 210 219 229 241 253 262 266 265 265 267 267 260 251 251 261 271 275 277 278 281 286 290 291 291 288 284 282 283 284 284 283 284 286 281 268 261 249 241 237 231 227 228
185 189 198 204 207 209 204 191 176 160 149 144 140 136 137 140 142 141 137 136 137 137 136 136 136 136 142 146 146 146 151 156 160 163 164 166 169 173 180 187 195 203 213 223 233 238 245 254 260 265 267 266 263 265 265 264 264 269 274 274 272 272 274 278 283 287 285 281 278 276 274 274 275 277 279 282 275 233 242 255 251 244 242 238 236 237
187 188 193 196 200 206 208 207 206 199 173 157 154 152 149 151 153 154 154 152 149 147 145 146 147 149 152 155 157 158 160 163 167 169 172 176 179 184 194 203 210 219 228 237 245 249 254 260 262 266 270 271 271 273 274 274 276 278 276 271 268 268 272 276 279 278 274 271 269 266 264 268 272 272 270 269 239 204 218 236 245 248 247 244 242 244
190 191 191 192 198 208 213 215 217 217 211 196 181 175 176 179 179 181 186 183 172 170 174 176 177 181 181 184 197 203 193 191 197 198 197 195 199 210 220 223 232 244 249 253 257 259 261 265 268 271 275 277 278 279 279 281 284 284 278 271 269 269 271 272 270 264 260 258 255 253 257 265 262 252 234 214 211 202 201 209 221 236 245 246 246 249